Flag for India Weather past 2 weeks in Gurdaspur, Punjab, India

Now
93 °F

Clear.


Feels Like: 105 °F
Forecast: 80 / 101 °F
Wind: 8 mph from South

Location: Amritsar Airport

Current Time: Aug 21, 2014 at 6:15:42 PM

Latest Report: Aug 21, 2014 at 5:00 PM


Visibility: 4 mi

Pressure: 29.56 "Hg

Humidity: 56%

Dew point: 75 °F

Location of GurdaspurLocation

Historic Weather in Gurdaspur — Graph

°F

Gurdaspur temperature yesterday

Maximum temperature yesterday: 97 °F (at 1:30 PM)
Minimum temperature yesterday: 82 °F (at 3:00 AM)
Average temperature yesterday: 88 °F

Past Weeks' High & Low Weather Summary

 TemperatureHumidityPressure
High97 °F (Aug 6, 5:00 PM)100% (Aug 7, 12:30 AM)29.80 "Hg (Aug 7, 12:30 AM)
Low73 °F (Aug 16, 9:30 AM)41% (Aug 21, 12:00 PM)29.39 "Hg (Aug 14, 6:00 PM)
Average86 °F82%29.57 "Hg
* Reported Aug 6 4:30 PM — Aug 21 5:00 PM, Gurdaspur, Weather by CustomWeather, © 2014

Note: Actual official high and low records may vary slightly from our data, if they occured in-between our weather recording intervals... More about our weather records

Advertising

Gurdaspur weather history for previous 24 hours

 ConditionsComfort  
Time TempWeatherWind HumidityBarometerVisibility
5:00 PM
Aug 21
93 °FClear.8 mph56%29.56 "Hg4 mi
4:30 PM93 °FClear.7 mph56%29.56 "Hg4 mi
4:00 PM93 °FClear.7 mph49%29.59 "Hg4 mi
3:30 PM93 °FClear.8 mph49%29.59 "Hg4 mi
3:00 PM95 °FClear.8 mph44%29.59 "Hg4 mi
2:30 PM95 °FClear.8 mph41%29.62 "Hg4 mi
2:00 PM95 °FClear.6 mph44%29.62 "Hg4 mi
1:30 PM95 °FHaze.6 mph44%29.62 "Hg3 mi
1:00 PM95 °FHaze.6 mph47%29.62 "Hg3 mi
12:30 PM95 °FHaze.6 mph44%29.62 "Hg3 mi
12:00 PM95 °FHaze.7 mph41%29.62 "Hg3 mi
11:30 AM95 °FHaze.7 mph44%29.62 "Hg3 mi
11:00 AM93 °FHaze.9 mph47%29.62 "Hg2 mi
10:30 AM93 °FHaze.6 mph49%29.62 "Hg2 mi
10:00 AM91 °FHaze.3 mph59%29.62 "Hg2 mi
9:30 AM88 °FHaze.6 mph75%29.62 "Hg2 mi
9:00 AM88 °FFog.3 mph75%29.62 "Hg2 mi
8:30 AM86 °FFog.2 mph79%29.62 "Hg2 mi
7:30 AM82 °FFog.3 mph89%29.59 "Hg2 mi
7:00 AM81 °FFog.5 mph94%29.59 "Hg2 mi
6:30 AM81 °FFog.No wind94%29.59 "Hg2 mi
6:00 AM81 °FFog.No wind94%29.59 "Hg2 mi
5:30 AM81 °FFog.No wind94%29.56 "Hg2 mi
5:00 AM81 °FFog.No wind94%29.56 "Hg2 mi
4:30 AM81 °FFog.No wind94%29.56 "Hg2 mi
4:00 AM81 °FFog.No wind94%29.56 "Hg2 mi
3:30 AM82 °FFog.No wind89%29.56 "Hg2 mi
3:00 AM82 °FFog.No wind89%29.56 "Hg2 mi
2:30 AM82 °FFog.No wind94%29.56 "Hg2 mi
1:30 AM82 °FFog.No wind94%29.59 "Hg2 mi
1:00 AM82 °FFog.No wind94%29.59 "Hg2 mi
12:30 AM84 °FFog.No wind84%29.59 "Hg2 mi
12:00 AM86 °FFog.No wind79%29.59 "Hg2 mi
11:30 PM
Aug 20
86 °FFog.No wind79%29.59 "Hg2 mi
11:00 PM86 °FFog.No wind75%29.59 "Hg2 mi
10:30 PM86 °FFog.No wind79%29.59 "Hg2 mi
10:00 PM84 °FFog.No wind84%29.62 "Hg2 mi
9:30 PM84 °FFog.No wind84%29.62 "Hg2 mi
9:00 PM86 °FFog.No wind79%29.59 "Hg2 mi
8:30 PM86 °FFog.No wind84%29.59 "Hg2 mi
8:00 PM86 °FFog.No wind79%29.59 "Hg2 mi
7:30 PM88 °FHaze.No wind70%29.59 "Hg2 mi
7:00 PM88 °FHaze.3 mph70%29.59 "Hg3 mi
6:30 PM90 °FHaze.1 mph67%29.59 "Hg3 mi
6:00 PM91 °FHaze.6 mph67%29.59 "Hg3 mi
Weather by CustomWeather, © 2014

See weather overviewHow to use our weather pages